Precipitable_Water
0.38 0.40 0.40 0.42 0.40 0.40 0.38 0.38 0.38 0.37 0.40 0.40 0.36 0.35 0.38 0.38 0.30 0.26 0.34 0.39 0.36 0.39 0.44 0.48 0.49 0.51 0.53 0.56 0.57 0.58 0.60 0.60 0.61 0.61 0.58 0.56 0.52 0.51 0.49 0.49 0.48 0.48 0.49 0.51 0.52 0.51 0.50 0.50 0.51 0.52 0.52 0.53 0.55 0.57 0.61 0.66 0.77 0.88 1.01 1.03 1.03 1.02 1.03 1.02 1.03 1.05 1.08 1.13 1.18 1.21 1.23 1.19 1.20 1.18 1.24 1.28 1.32 1.35 1.36 1.38 1.43 1.44 1.45 1.43 1.40 1.39 1.38
0.36 0.38 0.38 0.41 0.37 0.38 0.38 0.37 0.37 0.38 0.39 0.38 0.39 0.38 0.40 0.39 0.35 0.36 0.38 0.38 0.38 0.43 0.46 0.49 0.51 0.55 0.57 0.60 0.61 0.59 0.59 0.59 0.60 0.60 0.60 0.58 0.54 0.53 0.51 0.50 0.50 0.49 0.50 0.51 0.52 0.52 0.51 0.51 0.52 0.53 0.52 0.51 0.52 0.53 0.55 0.59 0.66 0.78 0.88 0.99 1.04 1.04 1.02 1.01 1.03 1.08 1.09 1.13 1.17 1.19 1.17 1.19 1.23 1.22 1.26 1.29 1.33 1.38 1.40 1.42 1.46 1.47 1.47 1.46 1.43 1.40 1.37
0.32 0.36 0.38 0.39 0.38 0.36 0.33 0.37 0.37 0.38 0.38 0.39 0.40 0.40 0.40 0.40 0.37 0.37 0.37 0.36 0.36 0.46 0.53 0.53 0.54 0.56 0.58 0.59 0.57 0.54 0.56 0.59 0.60 0.60 0.61 0.60 0.58 0.56 0.54 0.53 0.52 0.51 0.51 0.51 0.52 0.52 0.51 0.52 0.53 0.54 0.54 0.53 0.53 0.54 0.56 0.57 0.60 0.70 0.80 0.83 0.92 1.02 1.01 1.04 1.08 1.13 1.14 1.12 1.15 1.16 1.17 1.19 1.27 1.27 1.29 1.31 1.33 1.36 1.39 1.42 1.46 1.47 1.47 1.44 1.41 1.41 1.40
0.27 0.34 0.33 0.35 0.37 0.36 0.33 0.33 0.35 0.35 0.34 0.31 0.35 0.35 0.41 0.37 0.32 0.33 0.34 0.32 0.34 0.44 0.51 0.53 0.53 0.52 0.51 0.52 0.53 0.52 0.54 0.59 0.60 0.59 0.61 0.62 0.61 0.59 0.58 0.56 0.54 0.54 0.52 0.50 0.51 0.52 0.52 0.52 0.53 0.55 0.56 0.55 0.55 0.55 0.58 0.58 0.61 0.65 0.71 0.77 0.80 0.87 0.98 1.06 1.10 1.12 1.15 1.18 1.20 1.21 1.24 1.22 1.20 1.27 1.31 1.33 1.35 1.38 1.41 1.43 1.44 1.44 1.40 1.39 1.39 1.40 1.40
0.24 0.31 0.34 0.33 0.33 0.31 0.26 0.28 0.31 0.35 0.35 0.36 0.38 0.40 0.43 0.42 0.40 0.32 0.28 0.30 0.43 0.46 0.51 0.46 0.47 0.50 0.48 0.50 0.53 0.51 0.52 0.56 0.60 0.60 0.61 0.63 0.64 0.63 0.61 0.59 0.57 0.57 0.56 0.54 0.53 0.53 0.54 0.54 0.55 0.57 0.60 0.58 0.55 0.58 0.58 0.61 0.62 0.64 0.67 0.72 0.76 0.79 0.89 1.00 1.08 1.12 1.16 1.21 1.23 1.22 1.21 1.21 1.17 1.24 1.28 1.31 1.34 1.38 1.39 1.40 1.41 1.36 1.34 1.34 1.32 1.34 1.34
0.24 0.30 0.31 0.31 0.25 0.17 0.19 0.33 0.38 0.37 0.33 0.34 0.31 0.31 0.37 0.41 0.42 0.37 0.41 0.41 0.45 0.47 0.46 0.44 0.45 0.48 0.48 0.51 0.55 0.56 0.53 0.54 0.59 0.61 0.63 0.64 0.65 0.66 0.65 0.63 0.61 0.60 0.61 0.59 0.58 0.58 0.58 0.59 0.61 0.62 0.64 0.62 0.62 0.64 0.64 0.63 0.61 0.62 0.65 0.68 0.73 0.76 0.80 0.87 0.99 1.09 1.13 1.16 1.16 1.17 1.18 1.17 1.16 1.25 1.29 1.29 1.30 1.31 1.31 1.32 1.31 1.29 1.28 1.25 1.24 1.22 1.22
0.24 0.29 0.29 0.22 0.16 0.17 0.32 0.39 0.40 0.40 0.38 0.38 0.34 0.35 0.38 0.40 0.43 0.41 0.40 0.41 0.42 0.45 0.47 0.48 0.49 0.50 0.53 0.55 0.55 0.53 0.55 0.58 0.59 0.60 0.62 0.64 0.65 0.66 0.66 0.65 0.64 0.64 0.63 0.62 0.62 0.61 0.61 0.63 0.65 0.67 0.65 0.67 0.67 0.65 0.65 0.63 0.64 0.63 0.65 0.68 0.69 0.72 0.76 0.80 0.86 0.94 1.03 1.08 1.08 1.12 1.14 1.15 1.15 1.20 1.23 1.23 1.22 1.23 1.22 1.21 1.19 1.18 1.16 1.14 1.14 1.12 1.11
0.31 0.26 0.24 0.15 0.16 0.29 0.35 0.38 0.39 0.40 0.39 0.38 0.34 0.30 0.37 0.40 0.42 0.40 0.38 0.41 0.43 0.45 0.46 0.48 0.51 0.49 0.50 0.53 0.55 0.54 0.56 0.59 0.60 0.61 0.63 0.64 0.66 0.66 0.68 0.69 0.68 0.67 0.66 0.65 0.64 0.64 0.69 0.69 0.70 0.72 0.70 0.70 0.67 0.65 0.66 0.63 0.64 0.66 0.66 0.66 0.67 0.69 0.69 0.74 0.80 0.85 0.90 0.95 1.00 1.03 1.05 1.07 1.07 1.12 1.14 1.13 1.11 1.15 1.16 1.17 1.21 1.23 1.21 1.13 1.06 1.03 1.03
0.22 0.23 0.22 0.21 0.28 0.27 0.30 0.32 0.33 0.34 0.30 0.31 0.29 0.22 0.28 0.39 0.44 0.42 0.39 0.40 0.43 0.45 0.47 0.49 0.48 0.47 0.45 0.43 0.46 0.53 0.54 0.58 0.62 0.64 0.66 0.67 0.68 0.70 0.71 0.73 0.74 0.75 0.74 0.73 0.72 0.72 0.72 0.73 0.73 0.72 0.72 0.70 0.67 0.64 0.63 0.62 0.63 0.65 0.66 0.65 0.67 0.68 0.70 0.73 0.77 0.82 0.85 0.86 0.88 0.94 1.01 1.05 1.05 1.08 1.10 1.11 1.13 1.13 1.10 1.12 1.14 1.14 1.10 1.06 1.03 0.99 0.99
0.31 0.23 0.20 0.20 0.19 0.16 0.23 0.32 0.39 0.44 0.43 0.42 0.42 0.34 0.27 0.41 0.44 0.45 0.41 0.39 0.43 0.45 0.46 0.47 0.46 0.45 0.35 0.31 0.37 0.48 0.53 0.58 0.60 0.64 0.67 0.69 0.71 0.72 0.73 0.75 0.77 0.79 0.80 0.79 0.78 0.77 0.75 0.73 0.71 0.72 0.72 0.70 0.67 0.63 0.62 0.62 0.61 0.60 0.61 0.61 0.65 0.69 0.71 0.75 0.78 0.82 0.84 0.84 0.84 0.87 0.92 0.95 0.98 1.01 1.05 1.07 1.07 1.09 1.04 1.03 1.01 1.01 1.00 0.96 0.97 1.00 0.98
0.27 0.24 0.19 0.18 0.15 0.19 0.28 0.34 0.39 0.44 0.46 0.45 0.45 0.32 0.22 0.39 0.41 0.42 0.42 0.40 0.43 0.45 0.43 0.44 0.45 0.38 0.28 0.30 0.39 0.49 0.53 0.56 0.60 0.60 0.63 0.67 0.70 0.72 0.74 0.74 0.75 0.78 0.81 0.83 0.82 0.80 0.79 0.77 0.76 0.75 0.73 0.71 0.67 0.63 0.63 0.62 0.61 0.58 0.58 0.62 0.66 0.69 0.73 0.77 0.78 0.78 0.80 0.82 0.85 0.86 0.86 0.89 0.93 0.96 1.00 1.02 1.05 1.08 1.05 1.03 1.01 1.01 1.00 0.96 0.95 0.99 1.02
0.27 0.25 0.21 0.18 0.22 0.21 0.32 0.38 0.41 0.45 0.47 0.47 0.36 0.16 0.18 0.32 0.39 0.42 0.42 0.39 0.41 0.43 0.45 0.45 0.41 0.37 0.29 0.32 0.42 0.53 0.55 0.57 0.60 0.61 0.61 0.64 0.67 0.70 0.73 0.76 0.77 0.79 0.82 0.82 0.82 0.82 0.82 0.81 0.82 0.79 0.75 0.71 0.67 0.64 0.63 0.63 0.61 0.59 0.60 0.62 0.66 0.69 0.70 0.72 0.75 0.76 0.77 0.76 0.78 0.82 0.85 0.88 0.91 0.92 0.95 0.98 1.01 1.05 1.07 1.07 1.04 1.03 0.99 0.97 0.96 0.99 1.03
0.26 0.25 0.22 0.24 0.25 0.32 0.38 0.39 0.43 0.45 0.47 0.38 0.21 0.15 0.22 0.35 0.39 0.41 0.42 0.41 0.42 0.44 0.43 0.44 0.37 0.42 0.46 0.47 0.53 0.54 0.55 0.54 0.56 0.59 0.62 0.64 0.66 0.67 0.70 0.73 0.77 0.77 0.80 0.80 0.79 0.80 0.83 0.85 0.84 0.83 0.79 0.74 0.69 0.67 0.64 0.62 0.59 0.61 0.62 0.63 0.63 0.64 0.66 0.67 0.67 0.70 0.75 0.75 0.75 0.76 0.80 0.84 0.88 0.90 0.92 0.92 0.97 1.00 0.99 1.00 1.00 0.98 0.96 0.93 0.92 0.95 1.00
0.23 0.25 0.21 0.21 0.25 0.33 0.40 0.43 0.44 0.46 0.34 0.20 0.18 0.29 0.40 0.40 0.38 0.42 0.43 0.41 0.44 0.45 0.44 0.43 0.44 0.46 0.51 0.52 0.53 0.52 0.51 0.52 0.55 0.56 0.58 0.60 0.62 0.66 0.69 0.72 0.74 0.75 0.77 0.78 0.79 0.80 0.82 0.84 0.85 0.84 0.80 0.75 0.72 0.70 0.67 0.64 0.64 0.65 0.64 0.64 0.64 0.62 0.62 0.64 0.64 0.63 0.64 0.70 0.74 0.74 0.76 0.78 0.80 0.82 0.86 0.89 0.89 0.89 0.91 0.91 0.90 0.90 0.92 0.90 0.89 0.90 0.94
0.28 0.27 0.23 0.20 0.16 0.34 0.40 0.42 0.39 0.44 0.27 0.27 0.35 0.38 0.40 0.43 0.41 0.41 0.42 0.43 0.45 0.46 0.43 0.45 0.45 0.47 0.48 0.49 0.49 0.51 0.50 0.50 0.51 0.54 0.55 0.55 0.57 0.59 0.62 0.67 0.72 0.75 0.75 0.76 0.77 0.78 0.82 0.83 0.84 0.84 0.81 0.76 0.74 0.73 0.69 0.68 0.69 0.69 0.67 0.66 0.64 0.63 0.61 0.61 0.62 0.63 0.62 0.61 0.63 0.68 0.70 0.73 0.74 0.75 0.81 0.85 0.85 0.87 0.87 0.86 0.84 0.82 0.81 0.83 0.83 0.83 0.87
0.21 0.21 0.18 0.19 0.27 0.36 0.44 0.40 0.30 0.36 0.39 0.42 0.42 0.41 0.35 0.41 0.42 0.41 0.41 0.43 0.46 0.47 0.46 0.44 0.44 0.46 0.46 0.46 0.48 0.49 0.49 0.49 0.50 0.53 0.54 0.55 0.56 0.57 0.61 0.64 0.67 0.71 0.73 0.74 0.75 0.78 0.81 0.83 0.83 0.84 0.84 0.80 0.76 0.74 0.73 0.75 0.74 0.72 0.70 0.68 0.65 0.62 0.60 0.60 0.61 0.62 0.63 0.63 0.62 0.63 0.64 0.66 0.68 0.70 0.72 0.76 0.80 0.82 0.83 0.84 0.83 0.79 0.79 0.79 0.79 0.78 0.77
0.27 0.23 0.26 0.34 0.40 0.42 0.45 0.45 0.43 0.43 0.45 0.46 0.45 0.42 0.40 0.38 0.40 0.45 0.42 0.42 0.45 0.47 0.47 0.46 0.45 0.43 0.45 0.45 0.48 0.48 0.48 0.48 0.48 0.49 0.52 0.54 0.54 0.55 0.56 0.59 0.63 0.65 0.69 0.71 0.74 0.77 0.80 0.82 0.83 0.85 0.84 0.82 0.80 0.77 0.79 0.81 0.77 0.74 0.71 0.69 0.67 0.64 0.61 0.61 0.60 0.61 0.63 0.63 0.63 0.62 0.63 0.64 0.62 0.63 0.64 0.67 0.69 0.73 0.77 0.79 0.79 0.77 0.75 0.74 0.72 0.72 0.74
0.38 0.39 0.38 0.42 0.43 0.44 0.44 0.47 0.47 0.44 0.44 0.46 0.46 0.42 0.39 0.42 0.43 0.45 0.42 0.44 0.44 0.45 0.47 0.44 0.45 0.43 0.43 0.43 0.45 0.47 0.48 0.48 0.48 0.50 0.50 0.52 0.54 0.53 0.54 0.55 0.58 0.60 0.65 0.70 0.72 0.74 0.78 0.82 0.83 0.84 0.85 0.85 0.81 0.81 0.84 0.83 0.82 0.79 0.75 0.71 0.68 0.66 0.64 0.63 0.62 0.62 0.61 0.61 0.62 0.63 0.64 0.64 0.63 0.62 0.61 0.62 0.62 0.64 0.69 0.70 0.73 0.74 0.73 0.72 0.70 0.70 0.70
0.31 0.24 0.39 0.38 0.39 0.42 0.43 0.44 0.45 0.46 0.46 0.45 0.45 0.43 0.42 0.43 0.45 0.45 0.47 0.45 0.45 0.45 0.45 0.44 0.43 0.41 0.42 0.42 0.43 0.45 0.46 0.46 0.47 0.47 0.48 0.50 0.52 0.52 0.51 0.53 0.54 0.55 0.60 0.64 0.68 0.71 0.75 0.80 0.82 0.83 0.84 0.86 0.86 0.88 0.89 0.88 0.85 0.82 0.78 0.73 0.70 0.68 0.65 0.64 0.64 0.63 0.59 0.58 0.60 0.62 0.63 0.64 0.65 0.64 0.64 0.62 0.61 0.61 0.63 0.64 0.66 0.69 0.71 0.70 0.69 0.69 0.67
0.29 0.27 0.35 0.39 0.43 0.44 0.45 0.44 0.41 0.41 0.43 0.45 0.46 0.45 0.44 0.45 0.46 0.46 0.46 0.46 0.44 0.45 0.43 0.43 0.41 0.40 0.42 0.41 0.41 0.42 0.44 0.45 0.46 0.46 0.47 0.48 0.49 0.51 0.52 0.52 0.52 0.52 0.55 0.59 0.64 0.68 0.73 0.78 0.80 0.82 0.84 0.85 0.87 0.89 0.91 0.92 0.91 0.87 0.81 0.76 0.71 0.68 0.67 0.66 0.64 0.63 0.60 0.58 0.59 0.60 0.61 0.63 0.62 0.63 0.65 0.64 0.61 0.58 0.58 0.61 0.62 0.65 0.69 0.70 0.71 0.71 0.70
0.33 0.37 0.38 0.39 0.41 0.41 0.42 0.44 0.44 0.44 0.45 0.46 0.46 0.45 0.44 0.44 0.44 0.44 0.46 0.46 0.44 0.43 0.41 0.42 0.42 0.39 0.40 0.41 0.42 0.42 0.43 0.45 0.46 0.46 0.47 0.48 0.49 0.50 0.50 0.50 0.51 0.51 0.51 0.53 0.58 0.64 0.70 0.75 0.77 0.79 0.82 0.84 0.87 0.88 0.90 0.91 0.91 0.90 0.87 0.83 0.77 0.72 0.70 0.68 0.65 0.64 0.63 0.61 0.59 0.58 0.59 0.62 0.65 0.67 0.66 0.66 0.65 0.64 0.69 0.74 0.76 0.75 0.75 0.78 0.82 0.85 0.85
0.25 0.25 0.31 0.38 0.30 0.29 0.37 0.42 0.43 0.45 0.47 0.47 0.46 0.45 0.43 0.42 0.42 0.43 0.42 0.43 0.44 0.43 0.42 0.41 0.40 0.38 0.39 0.41 0.42 0.41 0.41 0.43 0.45 0.46 0.46 0.47 0.48 0.48 0.50 0.50 0.50 0.50 0.51 0.51 0.52 0.56 0.61 0.68 0.72 0.75 0.81 0.83 0.85 0.87 0.88 0.90 0.90 0.88 0.89 0.89 0.84 0.78 0.74 0.71 0.68 0.66 0.64 0.62 0.61 0.60 0.60 0.60 0.62 0.64 0.70 0.72 0.73 0.75 0.76 0.77 0.80 0.84 0.86 0.84 0.87 0.90 0.86
0.25 0.34 0.40 0.42 0.40 0.38 0.41 0.44 0.47 0.48 0.49 0.48 0.45 0.42 0.41 0.42 0.42 0.43 0.41 0.39 0.38 0.38 0.39 0.41 0.39 0.38 0.38 0.39 0.41 0.40 0.40 0.41 0.45 0.46 0.46 0.45 0.46 0.47 0.48 0.47 0.47 0.47 0.48 0.49 0.49 0.51 0.54 0.59 0.63 0.69 0.76 0.82 0.84 0.86 0.88 0.89 0.89 0.88 0.88 0.88 0.88 0.85 0.82 0.77 0.74 0.72 0.70 0.67 0.66 0.64 0.64 0.64 0.64 0.63 0.65 0.71 0.76 0.80 0.81 0.80 0.80 0.80 0.83 0.85 0.87 0.88 0.85
0.36 0.40 0.42 0.44 0.42 0.38 0.43 0.47 0.49 0.49 0.50 0.48 0.45 0.45 0.44 0.43 0.42 0.42 0.41 0.40 0.36 0.35 0.37 0.38 0.39 0.38 0.38 0.39 0.39 0.38 0.38 0.39 0.41 0.43 0.44 0.46 0.46 0.47 0.48 0.47 0.47 0.46 0.46 0.47 0.47 0.49 0.53 0.55 0.57 0.61 0.69 0.78 0.81 0.85 0.88 0.89 0.91 0.91 0.90 0.87 0.86 0.85 0.89 0.86 0.83 0.85 0.80 0.75 0.73 0.70 0.70 0.71 0.71 0.69 0.68 0.68 0.71 0.77 0.78 0.78 0.76 0.77 0.78 0.79 0.82 0.84 0.84
0.35 0.43 0.46 0.46 0.45 0.46 0.48 0.49 0.49 0.50 0.50 0.49 0.45 0.45 0.44 0.42 0.42 0.42 0.40 0.39 0.38 0.36 0.35 0.35 0.37 0.38 0.37 0.37 0.37 0.36 0.35 0.36 0.38 0.38 0.40 0.43 0.45 0.46 0.46 0.47 0.46 0.45 0.45 0.47 0.48 0.49 0.50 0.52 0.52 0.56 0.62 0.70 0.77 0.82 0.85 0.88 0.89 0.89 0.90 0.88 0.85 0.85 0.88 0.88 0.88 0.80 0.78 0.77 0.74 0.73 0.73 0.74 0.75 0.76 0.74 0.73 0.71 0.72 0.77 0.79 0.78 0.77 0.77 0.77 0.79 0.81 0.83
0.43 0.45 0.47 0.49 0.49 0.49 0.50 0.49 0.48 0.49 0.49 0.49 0.47 0.46 0.47 0.44 0.42 0.41 0.40 0.38 0.37 0.37 0.36 0.36 0.35 0.36 0.36 0.34 0.34 0.35 0.34 0.34 0.36 0.37 0.37 0.39 0.41 0.43 0.44 0.44 0.45 0.46 0.47 0.47 0.48 0.48 0.48 0.49 0.50 0.50 0.54 0.62 0.71 0.76 0.82 0.86 0.87 0.87 0.89 0.90 0.90 0.91 0.96 0.96 0.87 0.85 0.86 0.83 0.79 0.79 0.80 0.81 0.82 0.82 0.81 0.80 0.77 0.76 0.74 0.74 0.75 0.77 0.79 0.79 0.80 0.82 0.84
0.45 0.47 0.47 0.44 0.44 0.46 0.48 0.44 0.42 0.48 0.48 0.49 0.47 0.46 0.45 0.44 0.42 0.41 0.41 0.39 0.37 0.37 0.36 0.36 0.35 0.35 0.34 0.34 0.34 0.34 0.32 0.33 0.34 0.35 0.35 0.37 0.37 0.39 0.42 0.44 0.45 0.45 0.45 0.46 0.47 0.48 0.48 0.48 0.48 0.48 0.49 0.55 0.65 0.72 0.77 0.82 0.85 0.86 0.87 0.88 0.91 0.92 0.93 0.97 0.98 0.99 0.96 0.89 0.86 0.82 0.83 0.84 0.84 0.83 0.82 0.81 0.81 0.78 0.75 0.72 0.70 0.70 0.73 0.77 0.81 0.82 0.83
0.44 0.46 0.46 0.40 0.39 0.42 0.45 0.48 0.48 0.49 0.49 0.48 0.47 0.46 0.45 0.43 0.40 0.39 0.37 0.36 0.35 0.36 0.36 0.36 0.33 0.31 0.30 0.32 0.32 0.31 0.32 0.32 0.31 0.32 0.34 0.35 0.36 0.38 0.40 0.42 0.43 0.43 0.43 0.44 0.45 0.47 0.48 0.48 0.47 0.47 0.47 0.50 0.57 0.67 0.72 0.77 0.81 0.84 0.85 0.86 0.88 0.88 0.89 0.89 0.91 0.95 0.97 0.97 0.90 0.88 0.85 0.85 0.86 0.85 0.86 0.85 0.85 0.82 0.80 0.78 0.76 0.75 0.76 0.78 0.79 0.81 0.82
0.44 0.46 0.49 0.49 0.49 0.50 0.50 0.50 0.49 0.48 0.47 0.48 0.48 0.47 0.44 0.39 0.38 0.37 0.36 0.35 0.34 0.34 0.34 0.33 0.32 0.31 0.31 0.31 0.32 0.31 0.31 0.31 0.31 0.31 0.33 0.35 0.36 0.36 0.38 0.40 0.41 0.41 0.41 0.42 0.44 0.45 0.46 0.47 0.47 0.46 0.47 0.49 0.51 0.56 0.64 0.71 0.74 0.78 0.83 0.85 0.86 0.86 0.86 0.88 0.89 0.91 0.91 0.91 0.91 0.89 0.88 0.86 0.85 0.84 0.84 0.82 0.82 0.82 0.81 0.81 0.79 0.79 0.77 0.78 0.79 0.80 0.82
0.46 0.48 0.49 0.49 0.50 0.50 0.48 0.46 0.45 0.46 0.45 0.46 0.45 0.43 0.41 0.38 0.36 0.35 0.35 0.34 0.33 0.32 0.33 0.32 0.31 0.30 0.31 0.31 0.31 0.31 0.31 0.31 0.31 0.32 0.33 0.34 0.35 0.36 0.36 0.37 0.39 0.40 0.40 0.40 0.41 0.42 0.43 0.45 0.46 0.46 0.47 0.49 0.49 0.52 0.55 0.60 0.67 0.73 0.79 0.84 0.85 0.84 0.85 0.84 0.85 0.87 0.87 0.87 0.86 0.85 0.84 0.83 0.82 0.82 0.81 0.81 0.81 0.81 0.80 0.79 0.78 0.76 0.74 0.77 0.78 0.78 0.78
0.47 0.48 0.49 0.49 0.48 0.48 0.46 0.45 0.46 0.45 0.45 0.45 0.43 0.40 0.39 0.38 0.36 0.35 0.34 0.34 0.33 0.32 0.32 0.31 0.30 0.30 0.31 0.31 0.31 0.32 0.32 0.32 0.33 0.33 0.33 0.34 0.34 0.35 0.35 0.35 0.33 0.32 0.33 0.35 0.38 0.40 0.41 0.43 0.45 0.46 0.49 0.50 0.49 0.50 0.52 0.55 0.58 0.64 0.71 0.76 0.82 0.83 0.82 0.83 0.85 0.84 0.82 0.82 0.82 0.80 0.80 0.81 0.81 0.82 0.81 0.81 0.81 0.80 0.80 0.80 0.80 0.79 0.77 0.78 0.78 0.79 0.80
0.47 0.47 0.47 0.46 0.45 0.45 0.46 0.46 0.45 0.45 0.44 0.43 0.40 0.37 0.36 0.35 0.34 0.34 0.34 0.33 0.32 0.32 0.31 0.31 0.30 0.30 0.31 0.32 0.32 0.32 0.32 0.32 0.33 0.33 0.33 0.33 0.33 0.33 0.34 0.34 0.34 0.34 0.34 0.36 0.37 0.39 0.40 0.42 0.43 0.46 0.49 0.49 0.50 0.50 0.50 0.52 0.55 0.57 0.58 0.63 0.69 0.74 0.77 0.81 0.84 0.84 0.83 0.80 0.80 0.81 0.81 0.81 0.82 0.82 0.82 0.81 0.81 0.81 0.81 0.81 0.81 0.82 0.83 0.83 0.84 0.85 0.87
0.47 0.45 0.44 0.44 0.45 0.45 0.44 0.45 0.44 0.43 0.42 0.39 0.38 0.38 0.38 0.38 0.38 0.37 0.35 0.34 0.33 0.32 0.31 0.31 0.31 0.31 0.31 0.32 0.31 0.30 0.31 0.31 0.31 0.31 0.31 0.30 0.30 0.30 0.32 0.33 0.33 0.34 0.34 0.35 0.36 0.37 0.39 0.40 0.42 0.45 0.47 0.49 0.49 0.50 0.50 0.50 0.51 0.54 0.56 0.59 0.62 0.67 0.72 0.78 0.82 0.83 0.82 0.80 0.80 0.79 0.80 0.81 0.82 0.82 0.81 0.81 0.81 0.82 0.82 0.81 0.81 0.82 0.81 0.82 0.83 0.85 0.87
0.47 0.46 0.46 0.47 0.45 0.43 0.43 0.44 0.45 0.42 0.41 0.40 0.39 0.38 0.38 0.38 0.38 0.36 0.35 0.33 0.31 0.30 0.29 0.30 0.30 0.30 0.30 0.30 0.29 0.26 0.28 0.27 0.25 0.25 0.26 0.26 0.26 0.26 0.27 0.29 0.31 0.32 0.34 0.35 0.36 0.37 0.38 0.40 0.41 0.43 0.45 0.47 0.48 0.49 0.50 0.50 0.50 0.51 0.54 0.58 0.59 0.63 0.68 0.71 0.77 0.79 0.77 0.78 0.79 0.79 0.79 0.80 0.80 0.80 0.79 0.79 0.79 0.80 0.80 0.80 0.80 0.81 0.81 0.82 0.83 0.84 0.84
0.52 0.52 0.52 0.51 0.51 0.50 0.49 0.47 0.45 0.42 0.39 0.37 0.37 0.38 0.39 0.38 0.36 0.34 0.34 0.30 0.26 0.26 0.28 0.29 0.29 0.28 0.27 0.27 0.26 0.23 0.24 0.24 0.22 0.22 0.22 0.22 0.22 0.22 0.22 0.24 0.26 0.27 0.29 0.31 0.33 0.34 0.36 0.38 0.40 0.42 0.44 0.45 0.47 0.47 0.48 0.49 0.49 0.50 0.51 0.53 0.56 0.58 0.59 0.64 0.67 0.69 0.70 0.75 0.77 0.77 0.75 0.75 0.76 0.77 0.78 0.78 0.78 0.79 0.79 0.79 0.79 0.79 0.79 0.78 0.80 0.82 0.83
0.53 0.52 0.52 0.53 0.53 0.52 0.50 0.48 0.46 0.43 0.41 0.39 0.39 0.38 0.37 0.36 0.33 0.32 0.29 0.27 0.26 0.26 0.26 0.27 0.27 0.26 0.25 0.24 0.22 0.21 0.21 0.22 0.21 0.20 0.19 0.19 0.19 0.19 0.18 0.18 0.19 0.19 0.20 0.22 0.26 0.29 0.32 0.35 0.38 0.40 0.42 0.43 0.44 0.46 0.47 0.48 0.48 0.48 0.49 0.50 0.51 0.53 0.55 0.56 0.58 0.61 0.67 0.70 0.69 0.69 0.68 0.70 0.72 0.73 0.74 0.75 0.76 0.76 0.76 0.77 0.77 0.77 0.77 0.77 0.78 0.78 0.79
0.53 0.53 0.54 0.54 0.54 0.53 0.51 0.48 0.46 0.44 0.42 0.41 0.39 0.38 0.35 0.32 0.30 0.30 0.30 0.28 0.26 0.26 0.26 0.26 0.26 0.24 0.24 0.23 0.23 0.22 0.22 0.21 0.20 0.19 0.19 0.19 0.19 0.18 0.17 0.16 0.16 0.16 0.16 0.16 0.19 0.23 0.26 0.29 0.32 0.35 0.37 0.40 0.41 0.43 0.45 0.46 0.47 0.47 0.48 0.48 0.48 0.48 0.49 0.50 0.52 0.55 0.58 0.61 0.62 0.64 0.66 0.69 0.69 0.68 0.68 0.69 0.71 0.72 0.74 0.74 0.74 0.75 0.75 0.75 0.76 0.76 0.76
0.54 0.55 0.55 0.55 0.55 0.53 0.50 0.48 0.48 0.46 0.44 0.42 0.40 0.37 0.35 0.33 0.32 0.31 0.30 0.28 0.27 0.27 0.27 0.27 0.26 0.25 0.25 0.24 0.23 0.22 0.21 0.21 0.20 0.19 0.19 0.18 0.18 0.17 0.16 0.15 0.15 0.16 0.15 0.16 0.19 0.20 0.22 0.24 0.25 0.28 0.30 0.33 0.35 0.38 0.40 0.43 0.44 0.45 0.45 0.46 0.46 0.46 0.46 0.46 0.47 0.48 0.52 0.56 0.59 0.61 0.62 0.62 0.63 0.65 0.66 0.65 0.66 0.67 0.69 0.70 0.71 0.71 0.72 0.73 0.73 0.74 0.74
0.54 0.56 0.57 0.56 0.55 0.52 0.50 0.49 0.49 0.47 0.45 0.41 0.38 0.37 0.36 0.35 0.34 0.33 0.31 0.30 0.29 0.28 0.27 0.26 0.26 0.25 0.24 0.23 0.21 0.21 0.20 0.20 0.20 0.19 0.18 0.18 0.18 0.16 0.15 0.16 0.16 0.16 0.16 0.18 0.18 0.18 0.19 0.20 0.21 0.22 0.23 0.25 0.28 0.30 0.33 0.36 0.39 0.41 0.42 0.43 0.43 0.44 0.44 0.44 0.45 0.45 0.46 0.49 0.52 0.54 0.56 0.57 0.58 0.58 0.61 0.62 0.64 0.65 0.65 0.65 0.66 0.67 0.68 0.69 0.70 0.70 0.71
0.55 0.55 0.55 0.54 0.51 0.51 0.50 0.48 0.48 0.46 0.45 0.43 0.39 0.37 0.37 0.36 0.34 0.33 0.32 0.30 0.30 0.28 0.27 0.26 0.25 0.22 0.22 0.21 0.20 0.19 0.20 0.20 0.20 0.19 0.18 0.17 0.16 0.15 0.15 0.15 0.15 0.16 0.16 0.16 0.16 0.16 0.17 0.17 0.18 0.18 0.19 0.20 0.22 0.23 0.25 0.27 0.29 0.31 0.34 0.37 0.38 0.40 0.41 0.42 0.43 0.43 0.44 0.45 0.45 0.47 0.50 0.51 0.52 0.54 0.55 0.56 0.56 0.58 0.60 0.61 0.61 0.61 0.61 0.62 0.63 0.65 0.67
0.56 0.55 0.54 0.52 0.51 0.50 0.49 0.48 0.46 0.46 0.45 0.44 0.41 0.40 0.40 0.37 0.35 0.33 0.31 0.30 0.30 0.29 0.27 0.26 0.25 0.23 0.21 0.20 0.20 0.19 0.20 0.20 0.19 0.18 0.18 0.16 0.14 0.13 0.12 0.12 0.14 0.15 0.15 0.15 0.15 0.15 0.15 0.15 0.15 0.16 0.16 0.18 0.19 0.20 0.20 0.21 0.21 0.22 0.23 0.24 0.26 0.29 0.31 0.34 0.36 0.38 0.40 0.41 0.43 0.44 0.44 0.45 0.47 0.47 0.48 0.49 0.50 0.50 0.50 0.52 0.53 0.54 0.53 0.52 0.53 0.56 0.59
0.56 0.55 0.53 0.51 0.50 0.49 0.48 0.48 0.46 0.45 0.45 0.44 0.43 0.43 0.41 0.40 0.36 0.33 0.32 0.32 0.30 0.29 0.27 0.26 0.26 0.24 0.23 0.21 0.20 0.20 0.19 0.19 0.18 0.18 0.17 0.15 0.13 0.12 0.11 0.12 0.15 0.15 0.15 0.14 0.14 0.14 0.13 0.13 0.14 0.14 0.14 0.15 0.16 0.16 0.17 0.17 0.17 0.17 0.17 0.17 0.18 0.19 0.19 0.21 0.22 0.25 0.29 0.32 0.36 0.38 0.40 0.41 0.42 0.43 0.44 0.45 0.46 0.47 0.47 0.48 0.49 0.49 0.49 0.50 0.50 0.50 0.50
0.55 0.53 0.52 0.50 0.49 0.48 0.48 0.46 0.45 0.44 0.44 0.44 0.44 0.44 0.42 0.40 0.38 0.35 0.33 0.31 0.30 0.28 0.26 0.25 0.25 0.25 0.24 0.21 0.19 0.18 0.18 0.18 0.17 0.16 0.16 0.16 0.16 0.15 0.13 0.13 0.15 0.14 0.14 0.13 0.13 0.13 0.13 0.13 0.13 0.13 0.14 0.14 0.14 0.14 0.13 0.13 0.13 0.13 0.13 0.14 0.14 0.14 0.14 0.14 0.15 0.16 0.17 0.19 0.21 0.24 0.27 0.30 0.32 0.34 0.36 0.38 0.40 0.42 0.43 0.44 0.45 0.46 0.46 0.47 0.48 0.49 0.50
0.54 0.53 0.52 0.50 0.48 0.48 0.47 0.46 0.45 0.44 0.43 0.44 0.45 0.45 0.43 0.40 0.38 0.35 0.33 0.30 0.29 0.27 0.25 0.24 0.25 0.24 0.23 0.21 0.18 0.16 0.16 0.16 0.16 0.16 0.14 0.14 0.14 0.15 0.16 0.15 0.15 0.15 0.14 0.14 0.14 0.13 0.13 0.14 0.14 0.14 0.13 0.13 0.13 0.13 0.12 0.12 0.12 0.12 0.12 0.12 0.12 0.12 0.12 0.11 0.12 0.12 0.12 0.13 0.14 0.15 0.16 0.18 0.19 0.21 0.22 0.24 0.27 0.30 0.34 0.36 0.39 0.41 0.42 0.43 0.45 0.45 0.46
0.53 0.52 0.51 0.49 0.48 0.47 0.46 0.45 0.44 0.44 0.45 0.46 0.45 0.44 0.42 0.39 0.38 0.36 0.33 0.31 0.29 0.27 0.25 0.24 0.24 0.24 0.23 0.21 0.18 0.17 0.16 0.17 0.17 0.16 0.14 0.12 0.12 0.12 0.15 0.16 0.15 0.15 0.14 0.14 0.14 0.14 0.14 0.14 0.14 0.14 0.13 0.13 0.13 0.13 0.12 0.12 0.12 0.12 0.12 0.12 0.12 0.12 0.12 0.11 0.11 0.11 0.11 0.12 0.12 0.12 0.13 0.13 0.14 0.14 0.15 0.16 0.17 0.18 0.20 0.21 0.24 0.27 0.30 0.32 0.35 0.38 0.41
0.53 0.53 0.51 0.49 0.47 0.46 0.47 0.47 0.47 0.47 0.46 0.45 0.44 0.44 0.42 0.39 0.37 0.36 0.33 0.31 0.29 0.27 0.26 0.25 0.24 0.24 0.23 0.22 0.20 0.18 0.17 0.16 0.17 0.17 0.17 0.15 0.13 0.14 0.16 0.15 0.16 0.15 0.15 0.14 0.14 0.14 0.14 0.14 0.14 0.14 0.14 0.13 0.13 0.13 0.12 0.12 0.12 0.12 0.12 0.11 0.11 0.11 0.11 0.12 0.12 0.12 0.12 0.12 0.12 0.12 0.12 0.12 0.12 0.13 0.13 0.13 0.13 0.14 0.14 0.15 0.16 0.17 0.18 0.19 0.20 0.22 0.24
0.53 0.52 0.51 0.49 0.48 0.48 0.49 0.48 0.48 0.46 0.45 0.43 0.41 0.40 0.40 0.39 0.37 0.35 0.33 0.32 0.30 0.28 0.28 0.27 0.25 0.24 0.24 0.22 0.20 0.17 0.15 0.14 0.15 0.17 0.17 0.17 0.17 0.16 0.16 0.16 0.16 0.15 0.15 0.15 0.15 0.15 0.14 0.14 0.14 0.14 0.14 0.13 0.13 0.13 0.12 0.12 0.12 0.12 0.11 0.11 0.11 0.11 0.11 0.11 0.11 0.12 0.12 0.12 0.12 0.12 0.12 0.12 0.12 0.13 0.13 0.13 0.13 0.13 0.13 0.13 0.13 0.13 0.14 0.15 0.16 0.17 0.17
0.52 0.51 0.50 0.49 0.48 0.48 0.48 0.47 0.45 0.43 0.42 0.41 0.40 0.40 0.40 0.40 0.38 0.36 0.34 0.32 0.30 0.29 0.28 0.27 0.26 0.25 0.24 0.23 0.22 0.20 0.17 0.15 0.13 0.14 0.17 0.17 0.17 0.16 0.16 0.15 0.15 0.15 0.15 0.15 0.15 0.15 0.15 0.15 0.14 0.14 0.14 0.13 0.13 0.13 0.13 0.12 0.12 0.12 0.12 0.11 0.11 0.11 0.11 0.11 0.11 0.12 0.12 0.12 0.12 0.12 0.12 0.12 0.12 0.13 0.13 0.12 0.12 0.13 0.13 0.13 0.12 0.13 0.13 0.13 0.13 0.14 0.14
0.52 0.51 0.51 0.50 0.49 0.48 0.46 0.45 0.44 0.42 0.42 0.43 0.42 0.41 0.41 0.39 0.38 0.36 0.34 0.32 0.30 0.29 0.27 0.27 0.26 0.25 0.24 0.23 0.22 0.21 0.20 0.18 0.15 0.13 0.16 0.17 0.16 0.16 0.16 0.16 0.16 0.15 0.15 0.15 0.14 0.15 0.15 0.15 0.14 0.14 0.14 0.14 0.13 0.13 0.13 0.13 0.12 0.12 0.12 0.12 0.12 0.12 0.12 0.12 0.12 0.13 0.12 0.12 0.12 0.12 0.12 0.12 0.12 0.13 0.12 0.13 0.13 0.13 0.13 0.13 0.13 0.13 0.13 0.13 0.13 0.13 0.13
0.52 0.51 0.50 0.49 0.47 0.46 0.46 0.44 0.43 0.42 0.42 0.42 0.41 0.41 0.40 0.39 0.36 0.34 0.33 0.31 0.30 0.29 0.28 0.27 0.26 0.25 0.24 0.23 0.22 0.21 0.20 0.18 0.18 0.17 0.17 0.16 0.16 0.16 0.16 0.16 0.16 0.15 0.15 0.15 0.14 0.15 0.15 0.15 0.14 0.14 0.14 0.13 0.13 0.13 0.13 0.13 0.13 0.13 0.13 0.13 0.13 0.13 0.13 0.13 0.13 0.13 0.13 0.13 0.13 0.13 0.13 0.13 0.13 0.13 0.13 0.13 0.13 0.13 0.13 0.13 0.13 0.13 0.13 0.13 0.13 0.13 0.13
0.51 0.50 0.49 0.49 0.48 0.48 0.48 0.46 0.45 0.44 0.43 0.42 0.42 0.41 0.40 0.37 0.35 0.34 0.32 0.31 0.30 0.28 0.27 0.27 0.26 0.26 0.25 0.24 0.22 0.21 0.20 0.20 0.19 0.18 0.17 0.16 0.16 0.16 0.16 0.16 0.16 0.16 0.15 0.15 0.15 0.15 0.15 0.15 0.14 0.14 0.14 0.14 0.13 0.13 0.13 0.13 0.13 0.13 0.13 0.13 0.13 0.13 0.13 0.13 0.13 0.13 0.14 0.14 0.14 0.14 0.14 0.14 0.14 0.14 0.14 0.13 0.13 0.13 0.13 0.13 0.13 0.13 0.13 0.13 0.13 0.13 0.13
0.52 0.51 0.51 0.50 0.49 0.49 0.48 0.47 0.46 0.45 0.44 0.44 0.42 0.40 0.38 0.36 0.34 0.33 0.33 0.32 0.30 0.28 0.27 0.26 0.24 0.25 0.25 0.23 0.22 0.21 0.21 0.21 0.20 0.18 0.17 0.17 0.16 0.16 0.16 0.16 0.16 0.16 0.15 0.15 0.15 0.15 0.15 0.15 0.15 0.14 0.14 0.14 0.13 0.13 0.13 0.13 0.13 0.13 0.13 0.13 0.13 0.14 0.14 0.14 0.14 0.14 0.14 0.14 0.14 0.14 0.14 0.14 0.14 0.14 0.14 0.14 0.14 0.14 0.14 0.14 0.14 0.14 0.14 0.14 0.14 0.14 0.14
Wind_Speed
10 9 10 9 8 9 9 9 10 11 10 11 11 11 11 13 13 14 17 20 20 21 22 23 24 25 25 24 24 25 25 25 26 24 21 20 18 17 17 17 19 20 22 23 24 26 28 29 29 29 29 29 29 30 30 30 31 33 36 39 42 43 45 46 47 48 48 48 47 46 44 43 43 43 42 41 40 40 40 41 41 41 41 41 41 40 40
10 9 9 9 9 9 9 10 10 11 11 11 11 11 12 13 13 14 17 19 19 19 21 23 24 25 25 23 23 25 25 24 26 26 23 21 20 19 17 17 18 19 21 23 24 26 28 29 30 29 30 30 30 30 31 31 31 33 34 37 40 42 43 45 45 46 47 47 47 46 45 43 42 43 43 42 40 40 40 40 40 40 40 40 41 41 40
10 8 9 10 9 9 9 10 11 11 11 11 11 11 12 12 13 15 17 18 18 18 21 23 24 24 25 24 24 25 25 25 26 26 24 22 21 20 18 17 17 18 20 22 24 26 28 30 30 30 31 31 31 31 31 31 31 32 34 35 37 40 41 42 43 44 45 46 46 46 46 44 42 42 43 42 41 41 40 40 40 40 40 40 40 40 40
10 8 9 11 10 8 9 10 11 11 11 11 11 12 12 12 14 16 17 18 18 19 21 22 23 24 25 24 25 26 26 26 27 27 25 23 21 21 20 18 17 17 18 20 23 25 28 30 31 31 31 32 32 32 32 32 31 31 33 34 35 37 39 40 42 42 43 44 45 46 46 45 42 42 43 43 42 41 41 41 40 40 40 40 40 40 40
10 9 10 11 10 9 9 10 10 10 11 11 11 12 12 12 13 15 16 17 18 20 21 22 23 24 25 25 26 26 27 28 28 27 26 24 22 21 20 19 18 17 17 18 21 24 27 30 31 32 32 33 33 34 34 34 33 32 33 33 34 35 36 38 40 41 42 43 44 45 45 45 43 42 43 43 42 42 41 41 41 41 41 40 40 40 40
10 11 11 10 9 9 9 10 9 9 10 11 11 12 13 13 12 14 15 16 18 19 21 22 23 24 25 26 25 26 27 28 27 27 26 25 24 22 21 20 19 18 17 17 18 21 25 29 31 33 33 34 34 34 34 35 35 35 34 34 34 35 35 35 37 39 41 42 43 43 43 43 42 42 43 43 42 41 41 41 42 43 42 41 41 41 40
11 12 11 10 9 9 10 11 10 10 10 11 12 13 13 12 12 14 16 17 18 19 20 22 23 24 25 25 24 25 27 28 27 27 26 26 25 24 22 21 19 18 18 18 18 19 22 25 29 31 33 34 34 34 34 35 35 36 35 35 35 35 35 35 35 37 39 40 41 42 42 42 41 42 42 42 42 41 40 40 41 42 43 42 42 41 41
10 10 9 8 10 11 11 11 11 10 10 11 12 13 13 11 12 14 16 17 18 19 20 22 22 24 24 23 22 24 27 28 28 27 27 26 26 24 24 22 20 19 18 18 18 19 20 22 24 27 30 33 34 35 35 35 36 36 36 37 36 36 36 36 36 36 37 38 40 41 42 43 42 42 42 42 41 41 40 40 40 41 42 42 42 41 41
9 9 9 10 11 12 11 10 9 10 11 11 12 13 13 12 12 14 16 17 18 19 20 22 23 23 22 20 21 25 27 28 28 28 27 27 26 25 24 23 21 19 18 17 17 17 18 19 21 23 26 29 32 34 35 36 36 36 37 37 38 37 37 37 37 37 37 38 39 40 41 43 44 44 44 44 43 42 41 41 41 41 41 41 41 41 41
8 9 10 11 11 11 10 9 10 11 12 12 12 13 13 12 13 16 16 16 18 19 20 22 22 22 20 19 21 25 28 27 27 27 28 28 26 25 25 24 22 20 17 16 16 17 17 19 20 21 23 26 29 32 34 36 37 37 38 38 38 38 38 38 37 37 38 39 40 40 41 42 44 44 44 45 45 44 43 42 42 41 41 41 41 41 41
9 8 9 9 9 10 10 10 12 13 12 12 12 12 13 13 15 17 17 17 18 19 20 22 21 20 19 19 21 25 28 27 27 27 27 28 27 26 25 24 22 20 17 16 15 16 16 17 18 20 22 24 26 29 32 35 37 38 38 39 39 39 39 39 39 39 39 39 40 40 41 41 42 43 43 43 43 44 45 44 43 41 40 41 41 41 41
9 8 9 9 10 10 10 11 13 13 12 11 12 12 13 14 17 18 17 17 18 19 20 21 19 19 19 19 22 25 26 27 27 27 27 27 27 27 26 24 22 21 19 17 16 15 16 17 17 18 21 23 25 27 30 33 35 38 39 40 41 41 42 41 41 41 40 40 41 41 41 42 42 43 42 42 42 43 44 44 43 41 40 40 41 41 41
9 9 10 11 12 11 11 11 12 12 12 12 12 13 14 16 18 18 17 18 18 18 19 19 18 19 20 20 22 24 25 25 26 26 26 27 27 27 26 25 23 22 21 19 18 16 16 17 17 16 17 20 22 25 27 30 33 36 39 41 42 43 43 44 43 43 42 42 42 42 42 42 43 43 43 42 42 43 43 43 43 42 41 41 41 41 41
9 10 10 12 12 11 10 11 12 12 12 13 13 14 16 17 18 18 18 18 17 17 18 18 18 19 19 20 21 22 23 24 25 26 26 26 26 26 26 26 25 23 21 20 19 18 16 16 16 16 16 17 18 21 24 27 30 34 37 40 41 43 44 45 45 45 45 44 44 44 43 43 44 44 43 43 42 42 42 42 42 42 42 41 41 41 41
9 10 10 11 11 10 10 11 12 12 12 13 14 15 16 17 17 17 17 17 17 17 17 18 18 18 19 19 20 21 22 23 23 24 25 26 26 26 26 27 27 26 23 22 21 19 18 16 15 15 16 17 17 19 21 24 27 31 35 38 40 42 44 45 46 47 47 47 46 45 45 45 45 45 45 44 43 43 43 42 42 42 42 41 41 41 40
9 9 9 10 11 11 11 11 12 12 13 13 13 14 16 17 17 16 17 17 17 17 17 18 18 17 18 19 19 20 21 22 22 23 24 25 25 26 26 27 27 27 25 24 23 21 19 18 16 15 15 16 17 19 20 22 25 28 31 35 39 41 43 45 46 47 47 48 48 47 47 47 47 46 46 46 45 44 44 44 44 43 43 42 41 41 41
10 10 12 12 12 12 12 12 12 13 13 13 13 14 15 16 16 16 16 17 17 17 17 17 17 17 18 18 18 19 20 21 21 22 23 23 24 25 25 26 27 27 25 24 24 23 21 20 18 16 16 16 17 18 20 21 23 25 28 31 35 39 42 44 45 47 48 48 49 49 49 48 48 48 48 47 47 46 45 45 45 45 44 43 42 41 42
13 13 13 13 12 12 12 12 12 13 13 14 14 14 14 15 15 16 16 17 17 17 17 17 17 17 18 18 18 19 19 20 20 21 21 22 23 24 25 24 25 26 25 24 24 24 25 24 21 19 18 17 17 19 20 20 21 23 26 28 32 36 40 43 45 46 47 49 49 50 50 50 50 49 49 48 48 47 46 46 46 46 45 44 43 42 42
13 13 12 12 12 12 13 13 13 13 13 14 13 13 14 15 15 16 16 16 17 17 17 17 17 17 18 18 18 18 19 20 20 20 20 21 22 22 23 24 24 25 25 24 24 24 25 26 25 24 22 20 18 18 19 20 20 21 23 25 29 32 36 40 43 45 47 48 49 49 49 50 50 50 49 49 48 48 47 47 47 46 45 45 44 43 42
12 13 14 14 14 14 13 13 13 12 12 13 14 14 14 14 15 16 16 16 17 17 17 17 17 17 17 17 18 18 19 19 19 19 20 20 21 21 22 23 24 23 23 24 24 24 24 25 25 25 25 24 23 21 20 19 19 20 21 23 26 29 32 36 40 43 45 47 47 48 48 49 49 49 49 49 49 48 48 48 47 46 46 45 45 44 43
13 14 14 14 14 14 14 13 13 12 13 13 14 14 14 14 15 16 16 17 16 16 17 17 17 17 17 17 17 18 18 19 19 19 19 20 20 20 20 21 22 22 22 23 23 23 23 23 24 24 25 25 25 25 25 23 20 18 18 20 22 25 28 31 36 39 41 43 44 45 46 46 47 47 47 48 49 48 48 47 46 46 45 45 45 44 43
14 13 13 12 12 13 14 13 13 13 13 13 14 14 14 14 15 15 16 17 17 16 17 17 17 17 17 17 17 17 17 18 19 19 19 19 19 19 20 20 21 22 22 22 22 22 23 23 24 24 24 25 25 26 26 27 25 21 18 18 20 22 24 27 31 35 38 40 41 42 43 43 43 43 43 44 46 46 46 45 44 44 44 44 43 43 42
14 14 14 12 12 13 14 13 13 13 13 13 13 14 14 14 15 15 15 16 17 17 17 17 17 17 18 17 17 17 17 18 18 18 18 18 18 19 19 19 20 21 22 22 22 23 24 24 24 24 24 24 25 25 27 28 27 25 24 23 19 17 18 21 25 29 32 34 36 37 39 39 39 39 39 39 40 42 42 42 42 42 42 42 41 41 41
15 15 15 14 13 14 14 13 13 13 13 13 13 14 14 14 15 15 15 16 17 17 17 17 17 18 18 18 17 16 16 17 18 18 18 17 17 18 18 18 19 20 21 22 22 22 23 24 24 23 23 24 25 25 26 27 27 26 27 30 27 20 13 10 14 18 22 26 28 30 31 33 34 34 35 35 36 37 38 38 39 39 39 40 40 40 40
16 16 16 15 14 14 13 13 12 13 13 13 13 14 14 14 15 15 15 15 16 16 16 17 17 18 18 18 18 17 17 17 17 17 17 17 17 17 17 18 19 19 20 21 21 21 23 24 24 23 23 23 25 25 25 25 26 25 27 29 30 27 20 9 2 8 12 16 20 23 25 27 28 29 30 30 31 32 33 33 34 35 36 36 37 38 39
16 16 15 14 14 13 12 12 12 13 12 12 13 14 14 14 14 15 15 15 16 16 16 16 17 18 18 18 18 18 17 17 17 17 17 17 16 17 17 18 18 18 19 19 20 20 22 23 23 23 22 23 24 24 24 24 24 24 25 26 26 26 25 20 12 7 6 9 12 16 19 21 22 23 24 25 26 27 28 29 30 31 32 33 34 35 36
16 16 14 14 13 13 13 13 12 12 12 12 13 14 14 14 14 15 15 15 15 15 15 16 16 17 17 17 17 17 17 17 17 17 17 17 16 16 17 17 17 17 18 18 19 20 20 22 22 22 22 22 23 23 23 23 23 23 23 24 23 22 23 23 19 14 10 7 7 10 12 15 17 18 19 20 21 22 23 25 26 28 29 30 30 31 32
16 15 15 14 14 14 14 13 12 12 12 12 13 13 14 14 14 15 15 15 15 15 15 15 16 16 17 17 17 17 17 18 18 17 17 17 16 16 16 17 17 17 17 17 18 19 19 20 20 21 22 22 22 22 21 21 21 21 21 22 22 20 18 17 16 15 12 10 8 8 8 9 11 12 13 15 16 17 19 20 22 23 25 26 27 27 28
15 15 15 15 15 14 12 12 12 12 12 12 13 13 14 14 14 14 15 15 15 15 15 15 16 16 16 17 17 17 17 17 18 17 17 17 17 16 16 17 17 17 17 17 17 17 18 18 19 20 21 21 21 21 20 20 19 20 20 20 20 20 18 16 13 12 11 9 8 6 6 6 6 7 9 10 12 14 15 16 18 19 21 22 24 24 25
14 14 14 14 14 13 12 12 12 12 12 12 13 13 14 14 14 14 15 15 15 14 15 15 15 15 16 17 17 17 17 17 17 17 17 17 17 17 17 17 16 16 16 17 16 17 17 17 17 18 19 20 20 20 20 19 18 18 18 18 18 18 18 16 14 12 10 9 7 5 4 4 4 5 6 8 9 11 12 13 14 16 17 18 19 20 21
13 13 13 13 13 13 12 12 12 12 13 13 13 13 14 14 14 14 15 15 14 14 14 14 14 15 16 16 16 16 16 16 17 17 17 18 18 18 17 17 16 15 15 16 16 16 16 16 17 17 18 18 18 18 19 18 17 16 16 16 16 17 17 15 14 12 10 9 7 6 4 3 2 2 4 5 6 7 9 10 11 12 13 14 14 15 17
13 13 12 13 13 13 13 13 12 13 13 13 13 13 13 14 14 14 14 14 14 14 14 14 14 14 15 16 16 16 16 16 16 17 17 18 18 18 18 17 16 15 15 15 15 15 16 16 16 16 16 17 17 17 17 17 17 16 15 14 14 14 15 14 13 12 10 8 7 6 5 4 3 2 1 1 3 4 6 7 8 9 10 10 11 12 13
13 13 13 13 13 13 13 13 13 13 13 13 13 13 14 14 14 14 14 14 14 14 14 14 14 14 14 15 16 16 16 16 16 17 17 18 18 18 18 17 16 16 15 14 15 15 15 15 16 15 15 15 15 15 15 15 15 15 15 14 13 13 13 13 13 12 11 9 8 6 5 5 4 3 3 2 1 1 2 3 4 5 7 8 9 9 10
16 16 16 16 15 14 14 14 14 13 14 13 13 13 14 14 14 13 13 13 13 13 13 13 13 13 13 14 15 15 15 15 16 16 17 18 18 18 18 17 16 15 15 15 15 15 15 15 15 15 14 14 14 14 14 14 13 13 13 13 12 12 12 12 11 11 10 10 9 8 7 6 6 4 3 3 2 2 1 0 1 1 2 4 6 7 7
18 17 17 16 16 15 14 14 13 13 13 13 13 14 14 14 13 13 13 13 13 13 13 12 12 12 13 14 15 15 15 15 15 16 16 17 18 18 18 17 17 16 15 15 15 15 15 14 14 14 13 13 13 13 13 13 12 12 12 12 11 11 11 10 10 10 10 9 8 8 8 7 6 6 5 4 4 3 2 1 1 1 1 2 3 4 4
18 17 16 15 15 14 13 13 13 12 12 13 13 13 13 13 12 12 12 12 12 12 12 11 11 12 13 13 14 14 14 14 15 15 16 16 17 17 17 17 17 16 16 15 16 15 15 14 14 13 13 12 12 12 12 12 11 11 11 11 10 10 10 10 9 9 9 8 8 7 7 6 6 6 5 5 5 4 4 3 2 1 2 2 3 4 4
16 16 15 15 14 13 13 12 12 12 12 12 13 12 12 12 12 11 12 12 12 12 11 11 11 11 12 13 13 13 14 14 14 14 15 15 16 16 17 17 17 17 16 15 16 16 15 14 14 13 12 12 11 12 12 12 11 10 10 10 10 9 9 9 9 8 7 7 7 7 6 7 6 6 6 6 5 5 4 4 4 3 3 3 3 3 3
15 15 15 14 14 13 13 13 12 12 12 12 12 12 12 11 11 11 11 11 11 11 11 11 11 11 12 12 12 13 13 13 14 14 14 15 15 16 16 16 16 16 16 16 16 15 15 14 14 13 12 12 12 11 11 11 11 10 10 9 9 9 9 9 8 8 7 7 7 6 6 6 6 6 6 6 5 4 4 3 3 4 4 4 4 4 4
14 14 14 14 13 13 13 13 13 13 13 13 13 12 12 11 11 11 11 11 11 11 11 10 10 11 11 12 12 12 12 13 13 13 14 14 15 15 15 15 15 15 15 16 16 15 15 15 14 13 13 13 12 12 11 11 11 10 9 9 9 9 9 8 8 8 8 7 7 7 7 6 6 6 6 6 6 5 5 5 5 5 5 5 5 5 5
14 14 14 13 13 14 14 14 14 14 14 13 13 13 12 12 11 11 11 11 11 11 11 10 10 10 11 11 11 11 12 12 13 13 13 14 14 14 14 14 15 15 15 15 15 15 15 15 14 13 13 13 12 12 12 12 11 10 9 9 9 9 8 8 8 8 8 8 8 8 8 8 8 7 7 7 7 7 7 7 7 7 7 7 7 7 7
14 14 13 13 14 14 14 15 15 15 14 14 13 13 13 12 12 12 12 11 11 11 11 11 10 11 11 11 11 11 11 12 12 13 13 13 13 14 14 14 14 15 15 15 15 15 15 14 14 13 13 13 13 12 12 12 12 11 10 10 9 9 9 9 9 9 9 9 9 9 9 10 10 10 10 10 10 10 10 10 10 9 9 9 9 9 9
14 14 14 14 14 14 15 15 15 15 15 14 14 14 13 13 13 12 12 12 11 11 11 11 11 11 11 11 11 11 11 11 12 12 12 13 13 13 13 14 14 14 15 15 15 14 14 14 14 14 13 13 13 13 13 12 12 11 11 11 10 10 10 10 10 9 9 9 9 10 10 10 11 11 11 11 11 12 12 12 11 11 11 11 11 11 11
14 14 14 14 15 15 15 15 15 15 15 15 15 14 14 14 13 13 12 12 11 11 11 11 11 11 11 11 10 10 11 11 11 12 12 12 13 13 13 13 14 14 14 14 14 14 14 14 14 14 14 13 13 13 13 12 12 12 11 11 11 11 11 10 10 10 10 11 11 11 11 11 12 12 12 12 13 13 13 13 13 13 13 13 12 12 12
14 14 14 14 15 15 15 15 15 15 15 15 15 14 14 14 14 13 13 12 12 12 12 12 11 11 11 11 11 10 11 11 11 11 11 12 12 13 13 13 13 13 13 13 13 13 13 13 13 13 13 13 13 13 13 12 12 12 12 12 12 12 11 11 11 11 11 11 12 12 12 12 12 13 13 13 14 14 14 14 15 15 15 15 15 15 14
13 14 14 14 14 14 15 15 15 15 15 15 15 15 14 14 14 14 13 13 12 12 12 12 12 11 11 11 11 11 11 11 11 11 11 11 12 12 12 12 12 12 12 12 12 12 12 12 13 13 13 13 13 13 13 12 12 12 12 12 12 12 12 12 12 12 12 12 12 13 13 13 13 13 14 14 14 15 15 15 16 16 16 17 17 17 17
14 14 14 14 14 14 15 15 15 14 14 14 14 15 15 15 14 14 14 13 13 13 13 12 12 12 11 11 11 11 11 11 11 11 11 11 11 11 11 11 11 11 11 11 11 11 12 12 12 13 13 13 13 13 12 13 13 13 13 13 13 13 13 13 13 13 13 13 13 13 13 14 14 14 14 15 15 15 15 16 16 17 17 17 17 18 18
14 14 15 15 15 15 15 14 14 14 14 14 15 16 16 15 15 15 15 14 14 13 13 13 12 12 12 11 11 11 11 11 11 11 11 11 11 11 11 10 10 10 11 11 11 11 11 12 12 12 13 13 13 13 13 13 13 13 14 14 14 14 14 14 14 14 14 14 14 14 14 15 15 15 15 16 16 16 17 17 17 17 17 18 18 18 18
16 16 16 16 15 15 14 14 15 15 15 15 16 16 16 16 16 15 15 15 14 14 14 13 13 13 12 12 12 12 12 11 11 12 11 11 11 11 11 10 10 10 10 10 11 11 11 12 12 12 13 13 13 13 13 13 14 14 14 14 15 15 15 15 15 15 15 15 15 15 15 16 16 16 16 16 17 17 17 18 18 18 19 19 19 19 19
17 17 16 16 15 15 15 15 15 16 16 16 16 16 16 16 16 16 16 15 15 14 14 14 14 13 13 13 12 12 12 12 12 12 12 11 11 11 11 10 10 10 10 10 11 11 12 12 12 13 13 13 13 14 14 14 14 15 15 15 16 16 16 16 16 16 16 16 16 16 16 16 17 17 17 17 17 18 18 18 18 19 19 19 20 20 20
18 17 17 16 16 16 16 16 16 16 16 16 16 16 16 16 16 16 16 16 15 15 15 15 14 14 14 13 13 13 13 13 12 12 12 12 12 11 11 11 11 10 10 11 11 12 12 12 13 13 13 14 14 14 15 15 15 15 16 16 16 16 17 17 17 17 17 17 17 17 17 17 17 18 18 18 18 18 18 18 18 19 19 19 19 20 20
19 18 18 18 17 17 17 17 16 16 16 16 16 16 17 17 17 17 17 17 16 16 15 15 15 15 15 14 14 13 13 13 13 12 12 12 12 12 12 11 11 11 11 11 12 12 12 13 13 13 14 14 14 15 15 15 16 16 16 17 17 17 17 17 18 18 18 18 18 18 18 18 18 18 18 18 18 18 18 19 19 19 19 19 19 20 20
20 20 19 19 18 17 17 17 17 16 16 17 17 17 17 17 17 17 17 17 17 17 16 16 16 16 16 15 15 14 14 14 14 13 13 13 13 13 13 12 12 12 12 12 12 13 13 13 13 14 14 14 15 15 16 16 16 16 17 17 17 18 18 18 18 18 19 19 19 19 19 19 19 19 19 19 19 19 19 19 19 19 19 19 19 20 20
Wind_Direction
303 303 303 305 306 304 303 309 321 331 330 330 334 336 339 343 341 337 338 340 341 344 347 348 347 347 348 346 344 346 347 346 345 338 325 320 316 304 293 284 273 264 259 255 248 241 238 238 238 236 236 235 234 232 231 231 229 228 227 226 226 227 227 228 230 230 231 232 233 234 234 235 235 233 230 230 231 232 233 233 234 235 236 236 236 236 238
307 304 306 310 306 302 301 301 312 325 326 321 323 327 332 336 334 333 336 339 341 345 347 347 347 346 347 347 347 349 350 348 348 344 333 327 324 315 302 291 280 269 262 258 252 244 239 238 239 237 235 235 236 235 233 232 231 230 229 227 227 227 228 229 230 230 231 232 233 234 234 235 234 231 228 229 231 232 232 232 232 233 234 235 236 237 238
314 308 312 315 307 298 296 298 307 319 321 318 320 321 325 331 332 332 336 339 341 345 346 345 345 346 348 350 350 350 350 349 349 348 341 332 328 323 312 300 288 276 267 262 256 249 242 239 239 239 237 235 236 236 236 234 232 231 230 229 229 229 229 230 230 230 231 232 232 233 232 233 232 229 227 229 231 231 232 232 232 232 233 234 236 237 239
312 306 313 315 311 308 304 301 306 313 317 318 319 316 318 326 331 333 337 340 342 343 343 343 346 348 349 350 349 348 349 349 349 349 345 338 333 328 320 308 297 285 273 266 261 254 247 243 240 239 238 237 236 236 236 235 234 232 231 230 231 231 231 231 230 230 231 231 231 231 230 230 230 229 228 229 231 233 234 233 232 232 233 234 236 237 240
311 312 317 316 318 320 310 301 301 307 311 313 314 314 313 317 327 334 336 337 337 340 342 344 347 349 350 349 348 348 348 350 350 350 347 344 340 333 325 316 306 294 281 271 265 258 252 246 242 240 240 239 237 237 237 236 236 234 232 231 231 231 231 230 230 230 230 230 230 230 230 230 230 229 229 230 232 234 235 234 233 233 233 234 236 239 241
311 316 320 322 321 313 302 301 304 305 308 309 311 313 310 309 321 330 330 329 332 337 341 343 345 348 348 347 348 349 349 349 351 351 350 347 344 337 329 321 312 300 290 280 270 262 255 248 244 242 241 240 239 238 237 237 237 236 234 233 232 231 231 230 230 230 229 229 229 230 229 229 229 229 229 230 233 234 235 234 234 234 234 236 238 240 242
312 318 327 329 317 301 298 305 308 305 307 308 307 309 306 304 313 324 326 326 329 334 338 340 341 343 344 345 348 351 351 349 349 351 351 348 346 342 334 325 316 306 297 288 277 269 260 251 246 243 242 241 240 238 238 238 238 237 235 234 232 232 231 231 231 230 229 230 229 229 228 228 228 228 229 231 233 234 234 235 235 235 236 238 240 241 242
313 319 326 318 305 303 305 307 308 311 316 316 313 312 309 304 311 321 324 324 327 331 334 337 338 339 341 345 349 351 351 350 349 350 351 350 346 344 340 332 322 312 303 294 285 278 267 257 249 245 244 242 240 239 239 238 238 238 237 235 234 233 233 232 232 231 230 230 230 229 228 228 228 229 229 231 232 233 234 235 236 236 237 239 240 241 243
314 315 312 309 312 316 311 303 307 314 316 316 316 314 311 306 308 316 320 322 325 328 330 333 335 336 339 343 348 351 352 352 350 350 351 351 348 345 344 340 332 322 312 301 293 285 275 265 256 250 247 244 242 241 240 239 238 238 238 237 236 235 234 234 233 232 231 231 231 230 229 228 228 229 230 230 232 233 234 235 236 238 239 239 241 242 243
316 317 316 318 322 319 307 297 303 308 308 310 314 314 312 307 309 317 320 321 323 324 326 331 333 334 337 342 345 349 351 351 352 352 351 352 351 350 348 345 340 334 325 314 304 294 282 272 262 256 252 249 246 243 242 240 240 238 238 238 237 237 236 236 235 234 232 231 231 231 231 229 229 230 230 231 232 233 234 235 236 238 240 240 241 242 242
312 316 316 315 311 309 303 299 302 307 308 311 317 319 314 310 314 319 320 319 319 321 324 329 332 333 337 340 342 346 349 350 352 353 353 353 353 354 353 351 347 343 337 329 320 308 295 284 271 261 257 254 250 247 245 243 241 240 239 239 238 238 238 238 237 236 234 233 232 232 232 231 231 231 232 232 233 234 235 235 237 238 239 240 241 242 242
303 308 309 307 304 305 305 302 304 310 313 319 326 321 312 312 318 320 319 318 317 319 323 328 331 333 335 336 339 343 346 349 352 354 353 353 353 355 356 356 353 349 346 343 336 323 309 298 285 270 261 257 254 251 248 245 243 242 241 240 240 239 239 239 238 237 236 234 233 233 233 233 232 233 233 234 234 234 235 235 237 238 239 240 241 242 242
298 299 302 305 305 306 306 305 307 313 319 326 325 315 310 317 321 320 319 318 317 320 324 327 328 330 331 332 336 341 345 348 351 354 354 353 354 355 356 356 354 350 347 347 344 333 318 307 297 283 270 264 259 256 252 248 245 243 242 242 241 240 240 239 239 238 237 236 235 234 234 233 233 234 234 235 235 235 236 236 237 238 240 241 242 244 243
299 300 302 307 309 307 307 310 313 317 322 321 315 312 316 320 321 321 320 319 318 320 323 324 325 326 330 332 335 340 344 347 349 352 354 355 356 357 358 358 357 353 348 347 346 341 332 319 307 296 284 275 268 264 259 254 250 247 244 243 242 241 240 239 239 238 238 237 236 235 235 234 234 234 235 236 236 237 237 238 238 239 241 242 243 244 244
301 306 308 311 311 306 307 314 316 318 318 315 314 317 319 319 320 322 321 319 319 320 321 322 324 326 329 333 335 338 342 345 348 350 352 355 357 357 358 359 359 358 354 350 347 344 339 331 320 309 298 288 280 274 269 263 258 252 247 244 242 241 240 239 239 238 238 238 237 237 236 235 235 234 234 235 237 237 238 239 240 241 242 243 243 244 244
301 304 302 302 304 304 306 310 312 313 315 317 319 319 318 319 321 322 321 321 321 321 320 322 324 326 329 332 334 337 340 342 345 348 351 354 356 356 357 358 359 0 359 356 352 349 344 337 329 322 312 301 292 286 279 272 265 259 253 248 244 242 241 239 239 238 238 238 238 237 237 236 236 235 235 235 236 238 238 239 240 241 243 244 244 245 245
293 293 292 295 301 306 307 306 308 312 316 319 321 319 318 320 322 322 322 323 323 323 323 322 323 327 329 330 333 336 337 339 342 345 349 352 354 355 357 359 0 2 3 2 0 0 359 352 340 330 321 309 301 296 291 282 274 266 259 253 248 244 242 240 239 238 237 237 237 237 237 236 236 236 236 236 237 238 239 239 240 241 243 244 245 246 246
295 295 295 296 300 305 308 307 308 314 318 320 322 322 321 321 322 323 323 323 324 325 324 323 324 326 327 328 331 333 335 337 339 342 346 349 351 354 356 358 359 2 5 6 6 8 12 11 4 353 340 323 309 301 297 292 285 276 266 258 252 247 244 242 240 238 238 237 237 237 236 236 236 236 237 237 237 238 239 240 240 241 243 244 245 246 247
295 297 297 298 299 302 308 310 310 313 317 320 322 323 322 321 321 323 323 323 324 326 325 325 324 323 324 326 328 330 333 334 336 339 342 345 348 351 355 357 359 1 5 8 8 9 12 14 14 11 5 354 338 321 307 298 293 286 277 267 258 252 247 243 241 239 237 237 236 236 235 235 235 236 237 237 238 238 239 240 241 241 243 244 245 246 247
287 290 294 297 298 299 304 308 309 311 315 319 321 322 322 322 322 323 324 325 325 327 328 327 323 321 323 324 325 327 330 332 334 336 338 341 345 348 352 356 359 1 4 7 7 7 8 9 10 10 10 8 4 355 341 324 307 295 286 277 266 258 251 246 241 239 237 236 235 234 234 233 233 234 236 236 237 238 239 240 241 242 242 243 244 246 249
289 292 295 298 300 301 302 302 303 307 313 317 321 323 324 325 326 325 326 327 326 327 329 328 326 323 322 322 323 325 327 329 332 333 334 337 341 344 348 354 358 1 3 5 5 4 5 6 6 6 7 7 7 7 4 356 342 322 303 289 277 267 257 249 243 239 236 234 233 232 232 232 232 233 235 236 236 237 239 240 241 241 242 243 245 248 250
288 290 290 293 298 301 300 298 299 304 310 315 320 322 324 326 326 325 326 327 327 328 329 330 330 328 324 323 323 323 325 327 329 330 332 334 337 340 344 350 355 358 1 3 3 2 1 2 3 4 6 6 6 6 7 5 2 354 337 316 296 279 266 254 245 238 233 230 230 230 230 230 231 232 234 235 236 236 238 239 240 241 242 244 245 248 250
282 283 283 285 291 296 298 298 299 303 310 315 318 320 322 324 324 323 324 326 327 328 329 331 332 331 329 326 325 323 324 325 327 328 331 332 334 336 339 345 350 353 356 360 2 1 360 359 0 2 4 4 3 4 5 6 8 7 2 353 337 310 282 261 245 235 228 225 225 226 227 227 229 230 232 233 234 235 237 238 240 242 243 244 245 247 249
280 283 283 283 286 292 297 299 299 303 309 313 315 317 319 321 322 322 323 325 326 326 327 330 332 333 332 330 328 327 325 324 326 329 329 330 332 333 335 340 345 348 351 354 358 0 0 359 358 0 3 3 2 2 3 6 9 12 13 14 12 2 335 281 240 225 220 219 220 221 222 224 226 228 230 232 233 235 237 238 240 241 242 243 244 246 247
277 281 282 283 284 289 295 300 303 305 308 311 313 316 318 319 320 322 323 325 326 325 326 329 332 334 334 334 333 331 328 327 328 328 328 328 330 331 333 336 340 343 346 349 352 357 0 360 359 360 1 2 2 3 3 6 9 13 17 19 20 20 20 23 183 197 201 207 211 213 215 218 222 225 229 231 233 235 236 237 239 240 242 243 244 244 246
275 279 281 284 286 289 294 300 303 303 304 307 312 315 317 318 320 321 323 324 324 325 327 329 331 334 335 335 335 335 332 329 329 328 327 328 329 330 330 333 335 338 341 344 346 352 358 359 358 360 2 2 3 4 4 6 10 13 17 20 24 30 38 51 69 105 149 177 193 202 207 211 216 221 225 228 230 232 233 235 237 239 241 243 244 245 246
276 278 278 280 283 285 287 292 297 299 301 305 310 313 315 317 320 321 322 323 324 326 327 328 331 334 336 336 337 337 335 332 330 328 327 328 329 328 328 329 332 334 337 339 342 346 353 356 357 358 1 3 4 4 6 8 11 13 15 20 26 33 41 52 63 74 87 115 153 176 191 201 208 214 219 222 225 228 230 233 236 238 241 243 245 246 247
279 277 274 274 277 281 285 289 294 298 301 304 306 309 312 316 319 320 321 322 323 323 324 327 332 336 337 337 337 337 337 335 333 330 328 327 328 327 327 327 329 331 333 336 338 341 347 352 354 356 359 2 3 4 6 8 11 15 17 21 26 31 36 43 54 63 72 91 117 141 163 181 195 206 213 219 224 227 230 233 235 238 241 244 246 247 249
279 276 275 274 276 282 289 292 293 296 299 302 304 307 310 313 316 317 318 319 320 320 322 327 332 336 337 338 338 338 337 336 335 333 330 327 327 327 327 327 326 328 330 333 335 337 342 347 350 353 356 359 2 4 5 6 10 14 18 21 25 30 34 38 44 52 63 78 98 117 140 163 184 202 213 220 225 228 230 233 236 238 242 245 247 249 251
278 276 275 274 275 280 285 286 288 291 295 298 301 303 306 309 312 313 314 317 318 318 320 325 330 334 336 338 340 341 339 337 336 335 334 332 330 329 329 327 326 326 328 330 331 334 338 343 347 349 351 354 359 2 4 6 7 10 15 21 25 29 31 35 41 48 55 65 77 91 115 150 180 202 212 220 225 227 230 233 236 239 242 244 247 250 252
280 278 274 271 273 276 280 282 284 288 292 295 297 299 303 306 308 309 311 314 315 316 318 322 327 331 335 338 340 341 339 338 337 336 337 337 337 335 333 330 327 325 325 326 329 332 335 338 342 344 346 348 353 358 2 5 7 7 10 15 21 25 27 30 37 44 48 54 62 69 78 102 146 189 209 219 224 226 229 231 234 237 240 243 246 250 252
280 279 274 272 274 276 278 279 282 285 288 292 294 295 299 303 305 306 308 310 312 314 316 319 324 328 332 336 338 339 339 339 339 338 339 341 342 341 338 335 330 326 324 325 326 329 333 335 337 340 342 344 347 352 357 1 4 8 9 11 15 20 24 29 37 42 42 43 50 56 61 66 71 78 124 203 222 230 236 239 240 242 243 245 248 252 254
273 274 271 269 270 272 273 275 278 282 285 288 291 295 298 301 303 304 305 306 310 312 313 316 321 325 330 334 337 339 340 340 341 342 342 343 344 344 342 339 335 331 329 328 327 328 331 333 334 336 338 340 343 348 352 355 358 3 7 10 14 17 20 27 35 40 41 41 43 46 51 54 53 50 54 61 76 182 229 242 246 246 247 246 247 250 254
269 270 269 267 267 269 270 272 275 279 283 287 290 294 297 299 300 301 302 304 308 310 311 314 318 323 328 332 336 340 341 341 342 343 343 343 344 344 344 342 339 337 335 334 333 331 330 329 331 332 334 337 341 345 348 350 352 356 1 6 11 15 17 20 25 30 35 40 43 43 45 48 45 40 34 29 28 30 29 1 280 258 254 249 247 251 260
270 271 272 270 269 271 273 273 275 278 281 285 289 292 294 296 296 298 300 302 305 308 310 312 316 322 327 331 335 339 342 342 342 343 343 343 344 345 345 345 344 343 342 342 340 336 331 329 329 329 331 334 339 343 345 346 348 350 354 358 3 9 13 15 16 18 24 31 36 38 39 40 40 38 38 37 36 34 27 10 338 318 315 298 281 277 280
268 269 270 270 270 271 272 274 276 278 280 283 288 291 292 292 292 294 298 301 304 307 309 311 315 320 325 329 333 337 339 341 342 343 344 343 344 345 346 347 348 348 347 346 345 341 337 333 332 331 330 333 337 339 341 343 344 347 349 351 354 359 4 8 11 15 18 21 23 26 28 31 31 30 30 31 34 38 41 41 32 8 336 316 305 300 300
266 265 266 268 269 269 271 272 273 274 278 283 287 289 289 289 290 294 298 301 303 305 307 310 314 318 322 326 331 334 337 339 341 342 343 344 345 346 347 348 349 350 349 348 347 345 342 339 337 335 334 334 335 336 337 338 339 341 344 347 349 350 353 357 2 6 9 11 13 15 17 18 19 19 18 17 19 24 28 28 21 14 7 354 337 318 304
264 262 263 265 268 269 271 271 270 270 276 282 285 285 285 286 289 293 297 299 302 305 307 310 313 316 319 324 328 331 334 337 339 340 341 343 345 347 348 349 349 350 349 348 347 347 345 344 343 341 340 339 336 334 334 334 333 333 335 338 341 343 344 345 348 349 350 352 356 0 3 2 2 5 9 9 7 9 11 5 355 350 351 352 349 342 329
263 263 264 266 269 270 270 269 269 270 274 278 281 282 283 284 287 290 293 297 300 303 305 308 312 315 317 320 324 328 331 334 336 338 340 342 343 345 347 349 350 349 348 347 347 347 347 347 346 346 345 344 341 337 334 333 330 328 328 329 331 333 334 334 335 335 333 332 333 338 341 341 342 346 350 350 348 347 347 344 337 329 324 323 326 327 326
261 263 264 266 268 268 268 268 269 270 272 274 276 278 280 282 285 286 289 293 298 299 300 303 308 312 313 315 319 323 327 331 333 335 337 340 342 343 345 347 348 348 347 347 347 347 347 348 348 349 348 346 344 342 340 337 334 329 326 325 325 325 326 326 326 326 324 321 321 321 320 319 320 322 323 324 325 324 322 321 321 319 314 310 308 307 308
261 262 264 265 265 265 266 267 268 270 270 271 272 274 276 279 282 284 286 289 293 295 296 299 302 306 309 311 315 319 322 326 331 333 336 339 341 342 343 345 346 347 347 347 347 346 346 348 349 350 350 349 347 345 343 342 340 337 333 329 326 323 321 320 320 319 317 315 313 310 308 307 307 307 308 308 309 309 308 308 309 310 309 306 303 301 300
261 261 263 264 265 265 266 267 267 268 268 268 269 270 273 276 279 281 283 286 289 292 294 296 299 302 305 308 312 315 318 322 327 331 334 337 339 340 341 342 344 345 346 346 346 347 348 349 350 352 351 350 350 349 347 345 344 343 341 337 332 328 323 320 317 315 312 310 307 304 302 301 300 300 300 300 301 301 301 301 302 303 303 302 301 300 300
260 261 263 264 265 266 267 267 267 267 267 267 267 268 269 271 275 277 279 281 284 287 289 293 295 298 302 305 308 311 314 318 323 327 331 333 335 336 338 340 342 344 346 347 347 348 349 351 352 354 354 354 353 352 351 350 350 349 347 345 342 338 333 327 322 317 313 309 306 303 301 299 297 296 296 296 295 295 295 296 296 297 296 296 296 296 296
259 261 263 265 266 267 268 268 267 267 267 267 267 267 268 269 271 273 274 276 279 281 284 288 291 293 297 301 305 308 311 314 317 322 326 329 331 333 336 338 341 343 345 347 349 350 351 352 354 355 356 357 357 356 355 355 355 354 353 351 349 347 343 339 334 328 321 315 310 307 304 301 298 296 294 293 292 291 291 291 290 290 290 289 289 289 289
260 262 263 265 268 270 269 268 267 266 267 267 267 267 267 267 268 269 270 272 274 277 279 283 287 290 294 298 301 305 308 310 313 316 320 323 325 328 332 336 338 341 345 347 349 350 351 353 355 356 356 357 357 357 356 356 356 355 354 353 350 348 347 344 341 336 330 325 319 314 310 306 302 299 297 294 292 291 290 288 287 286 286 286 286 286 286
262 263 265 268 270 271 270 269 269 269 268 267 267 267 266 266 266 267 268 269 272 274 276 280 284 287 290 294 298 302 305 308 310 312 315 318 320 323 328 332 335 338 342 345 347 348 349 351 353 354 355 355 354 353 353 353 353 352 351 350 348 346 344 342 339 336 333 329 325 321 316 312 308 305 302 299 296 293 292 290 288 287 286 285 284 284 284
262 265 267 270 273 274 273 273 272 270 268 267 267 267 266 264 264 265 266 269 270 272 274 277 281 285 287 290 294 297 300 304 307 308 311 314 317 320 323 327 330 333 337 340 342 343 345 346 348 348 349 349 349 348 348 349 349 348 348 347 345 344 342 340 337 333 331 328 326 323 320 317 314 310 307 304 301 298 295 293 291 289 287 286 284 284 283
261 264 266 269 272 274 274 273 271 268 267 266 267 266 265 264 263 263 265 267 269 270 271 274 278 281 283 286 290 293 295 298 301 303 305 308 311 314 316 320 324 327 330 333 335 336 338 340 341 342 343 343 342 342 343 344 344 345 344 344 343 342 341 339 335 332 330 328 325 323 320 318 316 314 311 308 306 302 300 297 295 293 290 288 287 285 285
260 262 264 267 270 273 273 272 271 269 267 266 266 265 264 263 263 263 263 265 266 268 269 271 274 277 280 283 287 290 292 294 296 298 299 302 305 307 310 313 316 320 322 325 327 329 331 334 335 336 337 337 337 337 338 339 340 340 341 340 340 340 339 337 335 333 330 329 327 324 322 319 317 315 313 310 308 306 303 301 299 297 295 292 290 289 288
260 261 263 265 268 270 271 272 272 271 268 266 266 265 264 262 261 262 262 263 264 266 267 268 271 274 277 280 283 286 289 291 293 295 296 298 299 301 303 306 309 312 315 318 320 322 324 327 329 330 331 332 333 333 334 335 336 336 336 336 337 337 337 336 334 333 331 329 327 325 323 321 319 316 314 312 309 307 305 303 301 300 299 296 294 293 292
258 258 260 262 264 267 269 271 272 272 269 268 267 266 263 262 261 261 261 261 262 264 266 267 269 271 273 276 280 282 285 287 290 291 293 294 295 296 298 300 302 305 308 311 314 316 318 321 323 325 327 327 329 330 331 332 332 332 332 333 333 334 334 333 332 331 330 329 327 326 324 322 320 318 315 313 311 309 306 304 303 301 300 299 298 296 295
258 258 258 260 264 268 270 272 273 272 271 269 268 266 264 262 262 262 261 260 261 262 264 266 268 269 271 273 276 279 281 283 286 288 289 291 291 291 292 294 296 299 302 305 308 311 314 316 319 321 323 324 325 327 328 329 329 329 330 330 331 331 331 331 330 330 329 328 327 326 324 322 320 318 316 314 311 309 308 306 304 303 301 300 299 298 297